Terminal Aerodrome Forecast
Issued by NWS Wilmington, OH

Current Version | Previous Version | Graphics & Text | Print | Product List | Glossary On
Versions: 1 2 3 4 5 6 7 8 9 10 11 12 13 14 15
000
FTUS41 KILN 181739
TAFDAY
TAF
KDAY 181739Z 1818/1918 13010KT P6SM SCT080
     FM182200 17008KT P6SM VCSH BKN035
      TEMPO 1822/1824 5SM SHRA OVC025
     FM190100 25014G26KT P6SM OVC025
     FM190600 29016G26KT P6SM VCSH OVC012
     FM190800 30014G24KT P6SM VCSH OVC008
     FM191300 33012G20KT P6SM OVC015
     FM191600 32014G20KT P6SM BKN025=

USA.gov is the U.S. government's official web portal to all federal, state and local government web resources and services.